Weather Roundup
Issued by NWS Springfield, MO

Home | Current Version | Previous Version | Text Only | Print | Product List | Glossary On
Versions: 1 2 3 4 5 6 7 8 9 10 11 12 13 14 15 16 17 18 19 20 21 22 23 24 25 26 27 28 29 30 31 32 33 34 35 36 37 38 39 40 41 42 43 44 45 46 47 48 49 50
000
NZUS99 KSGF 260607
HRRSGF

HOURLY WEATHER
NATIONAL WEATHER SERVICE SPRINGFIELD MO
100 AM CDT THU APR 26 2018

......SGF CWA......

CITY           SKY/WX    TMP DP  RH WIND       PRES   REMARKS
SPRINGFIELD    CLOUDY    50  48  93 N8        29.96F
6HR MIN TEMP:  50; 6HR MAX TEMP:  53; 6HR PCP:  0.28;

JOPLIN         CLOUDY    51  49  92 N9        30.00R
6HR MIN TEMP:  51; 6HR MAX TEMP:  53; 6HR PCP:  0.03;

WEST PLAINS    CLOUDY    51  48  89 N7        29.94F
6HR MIN TEMP:  51; 6HR MAX TEMP:  55; 6HR PCP:  0.03;

ROLLA          LGT RAIN  49  47  93 N6        29.98F FOG
6HR MIN TEMP:  49; 6HR MAX TEMP:  50; 6HR PCP:  0.17;

OSAGE BEACH    LGT RAIN  49  48  97 N3        29.99F FOG
BRANSON        FOG       50  50 100 CALM      29.96S VSB 1

......SURROUNDING SGF CWA......

CITY           SKY/WX    TMP DP  RH WIND       PRES   REMARKS
CHANUTE        CLOUDY    50  47  89 N6        30.02F
PARSONS        CLOUDY    50  48  93 N7        30.02F
COFFEYVILLE    CLOUDY    50  48  93 N12       30.01S
EMPORIA        CLEAR     41  40  96 NW6       30.03F FOG
GROVE OK       CLOUDY    52  52 100 CALM      29.98F FOG
ROGERS AR      LGT RAIN  50  49  96 NW5       29.96F FOG
SILOAM SPRINGS LGT RAIN  50  49  96 NW10      29.97
HARRISON AR    CLOUDY    50  50 100 CALM      29.94F FOG
NEAR YELLVILLE LGT RAIN  52  51  97 N5        29.95F FOG

......KANSAS AND MISSOURI......

CITY           SKY/WX    TMP DP  RH WIND       PRES   REMARKS
KANSAS CTY INT CLEAR     45  43  93 W5        30.01F
DOWNTOWN KC    CLEAR     47  44  90 CALM      30.00F FOG
COLUMBIA       CLOUDY    50  49  96 NW5       29.98F FOG
SEDALIA        CLOUDY    50  50 100 N3        30.01F FOG
ST JOSEPH      CLEAR     40  38  93 CALM      30.02F
ST LOUIS       CLOUDY    56  46  69 NW5       29.95F
SPIRIT OF STL  CLOUDY    53  51  93 W6        29.95F
KIRKSVILLE     CLEAR     38  38 100 W5        29.98F FOG     WCI  34
WICHITA        PTCLDY    42  41  96 CALM      30.05F
TOPEKA         CLEAR     44  44 100 CALM      30.02F
OLATHE         CLEAR     44  44 100 NW5       30.00F FOG

......TENNESSEE......

CITY           SKY/WX    TMP DP  RH WIND       PRES   REMARKS
MEMPHIS        HVY RAIN  55  54  96 N7        29.88R
NASHVILLE      CLOUDY    61  51  70 W8        29.91F

......ARKANSAS.......

CITY           SKY/WX    TMP DP  RH WIND       PRES   REMARKS
FAYETTEVILLE   LGT RAIN  49  49 100 W6        29.96F FOG
FT SMITH       CLOUDY    51  50  96 W8        29.98F
LITTLE ROCK    RAIN      53  53 100 N5        29.92F FOG

......OKLAHOMA.......

CITY           SKY/WX    TMP DP  RH WIND       PRES   REMARKS
TULSA          CLOUDY    50  46  86 NW10      30.02S
PONCA CITY     CLEAR     44  40  85 W3        30.06F
MCALESTER      CLOUDY    50  46  86 NW9       30.04S
OKLAHOMA CITY  CLEAR     44  40  85 N5        30.06F

......IOWA............

CITY           SKY/WX    TMP DP  RH WIND       PRES   REMARKS
DES MOINES     PTCLDY    51  31  46 CALM      29.98F
QUAD CITIES    FAIR      41  33  73 E8        29.96F

......ILLINOIS........

CITY           SKY/WX    TMP DP  RH WIND       PRES   REMARKS
QUINCY         CLEAR     47  38  71 W5        29.97S
CHICAGO        FAIR      40  29  64 CALM      29.98F





USA.gov is the U.S. government's official web portal to all federal, state and local government web resources and services.